This is the latest recevied weather packets stored in our database for station/object IW4DZV-13. If no packets are shown the sender has not sent any weather packets the latest 10 day(s).
| Time | Temp. | Humidity | Pressure | Rain* | Wind** | Luminosity | Snow |
|---|---|---|---|---|---|---|---|
| 1777965322 | 14.44° C | 83% | 1013.1 hPa | 2.03 mm | - | 21 W/m² | - |
| 1777964407 | 15° C | 79% | 1013.2 hPa | 1.02 mm | - | 19 W/m² | - |
| 1777963504 | 15.56° C | 74% | 1013 hPa | 0 mm | - | 21 W/m² | - |
| 1777962602 | 15.56° C | 71% | 1013 hPa | 0 mm | - | 47 W/m² | - |
| 1777961706 | 15.56° C | 71% | 1012.8 hPa | 0 mm | - | 102 W/m² | - |
| 1777960859 | 15.56° C | 71% | 1012.7 hPa | 0 mm | - | 74 W/m² | - |
| 1777959974 | 15° C | 70% | 1012.5 hPa | 0 mm | - | 47 W/m² | - |
| 1777959056 | 15° C | 70% | 1012.4 hPa | 0 mm | - | 32 W/m² | - |
| 1777958158 | 15.56° C | 70% | 1012.2 hPa | 0 mm | - | 25 W/m² | - |
| 1777957254 | 15.56° C | 68% | 1012.3 hPa | 0 mm | - | 39 W/m² | - |
| 1777956367 | 15° C | 69% | 1012.2 hPa | 0 mm | - | 11 W/m² | - |
| 1777955451 | 15.56° C | 69% | 1012.4 hPa | 0 mm | - | 7 W/m² | - |
| 1777954549 | 15.56° C | 67% | 1012.3 hPa | 0 mm | - | 0 W/m² | - |
| 1777953648 | 15.56° C | 68% | 1012.2 hPa | 0 mm | - | 0 W/m² | - |
| 1777952747 | 15.56° C | 66% | 1012.3 hPa | 0 mm | - | 0 W/m² | - |
| 1777951851 | 15.56° C | 67% | 1012.2 hPa | 0 mm | - | 0 W/m² | - |
| 1777950944 | 16.11° C | 65% | 1012.4 hPa | 0 mm | - | 0 W/m² | - |
| 1777950046 | 16.11° C | 64% | 1012.4 hPa | 0 mm | - | 0 W/m² | - |
| 1777949164 | 16.11° C | 64% | 1012.3 hPa | 0 mm | - | 0 W/m² | - |
| 1777948242 | 16.11° C | 64% | 1012.5 hPa | 0 mm | - | 0 W/m² | - |
| 1777947354 | 16.11° C | 64% | 1012.6 hPa | 0 mm | - | 0 W/m² | - |
| 1777946445 | 16.11° C | 64% | 1012.6 hPa | 0 mm | - | 0 W/m² | - |
| 1777945539 | 16.11° C | 63% | 1012.6 hPa | 0 mm | - | 0 W/m² | - |
| 1777944636 | 16.11° C | 62% | 1012.8 hPa | 0 mm | - | 0 W/m² | - |
| 1777943748 | 16.11° C | 63% | 1013 hPa | 0 mm | - | 0 W/m² | - |
* Rain since midnight (hover to see other rain measurements)
** Current wind speed in m/s (hover to see current wind gust speed)